STARLINK-1402, 45685

Orbit data source: Space-Track

STARLINK-1402, 45685 is a payload satellite owned by SpaceX/Seattle (US) in LEO that was launched on Thu, 04 Jun 2020 UTC via an FALCON 9 launch vehicle from the Air Force Eastern Test Range (AFETR). Payload-class satellites include a variety of spacecraft equipped with specific instruments for various scientific and technological missions. These include communications satellites like Starlink; space stations such as the ISS; scientific satellites like the Hubble; Earth observation satellites from companies like Planet Labs, Umbra, and HawkEye 360; GPS; miniature CubeSats for education and research; and military/defense satellites.

Loading next visibility...
Identifier
45685, 2020-035AE
Orbit
LEO
Last TLE update
13 hours ago
Origin
Manufacturer
SpaceX/Seattle
Mission
Operational Commercial Communications
Bus & Motor
STARLINK, Unknown motor
Mass
260 kg wet, ~248 kg dry
Launch date (UTC)
2020-06-04 (5 years ago)
Launch vehicle
FALCON 9
Launch site
Air Force Eastern Test Range (AFETR)
Object type
Payload
Rocket body
Debris
Shape & HBR
Box + 1 Pan, 8.86 m
Radar Cross Section
13.562 m², Large (>1 m²)

Expand to show TLE details & history

TLE from 13 hours ago
0 STARLINK-1402
1 45685U 20035AE  25128.74359948  .00000659  00000-0  63108-4 0  9997
2 45685  53.0567 339.9903 0001287  84.0608 276.0528 15.06403154272994
Epoch: 2025-05-08T17:50Z
Definitive object data (Epoch: 2025-05-08T17:50:46.995Z)
Latitude
0.00002°
Longitude
-154.5152°
Altitude
547.987 km
Speed
7.589 km/s
True Right ascension
22h 39m 57s
True Declination
0° 00' 00"
Sunlit
Object was in daylight at TLE epoch
Visualization TLE readout
Latitude
47.20924°
Longitude
-103.06179°
Altitude
551.539 km
Speed
7.592 km/s
Apparent Right ascension
02h 34m 12s
Apparent Declination
5° 55' 54"
Sunlit
Object is in daylight
Visualization observer readout
Local Sidereal Time
15:01:34
Azimuth
9.437° NNE
Elevation
-43.72°
Doppler factor
1
Orbital elements
Apogee altitude
548.364 km
Perigee altitude
546.581 km
Semi-major axis
6,925.609 km
Eccentricity
0.0001287
Inclination
53.0567°
RAAN
339.9903°
Arg. of periapsis
84.0608°
True anomaly
276.03813°
Mean anomaly
276.0528°
Eccentric anomaly
276.04547°
Mean motion
3.76579 °/min
BSTAR
0.000063108
Orbital period
95.6 mins
Loading maneuver chart data...
Loading SW <> Apogee altitude chart data...

STARLINK-1402 Visibility forecast

Observer location: undefined°, undefined°

Span
Click to sort rows by Start time (UTC) header in descending order
Start Az.
Max El. time (UTC)
Max El. Az.
Max El.
End time (UTC)
End Az.
7 mins2025-05-09 16:17:40.547Z211.346° SW2025-05-09 16:21:40.547Z121.841° SE38.309°2025-05-09 16:24:40.547Z61.504° ENE
6 mins2025-05-09 17:58:40.547Z282.648° WNW2025-05-09 18:00:40.547Z319.997° NNW24.516°2025-05-09 18:04:40.547Z33.117° NE
6 mins2025-05-09 23:00:40.547Z326.322° NNW2025-05-09 23:02:40.547Z19.003° NNE38.649°2025-05-09 23:06:40.547Z113.155° SE
4 mins2025-05-10 00:40:40.547Z260.936° W2025-05-10 00:41:40.547Z242.092° WSW19.353°2025-05-10 00:44:40.547Z188.222° SSW
|